Previsão horária em Aars

Hoje, 16 Janeiro, Sábado

Tempo Temperatura Precipitação Vento Pressão Humidade
00:00 -2°C° 0 mm 1 m/s 768 mmHg 81%
01:00 -3°C° 0 mm 1 m/s 768 mmHg 81%
02:00 -3°C° 0 mm 1 m/s 767 mmHg 80%
03:00 -3°C° 0 mm 1 m/s 767 mmHg 80%
04:00 -3°C° 0 mm 1 m/s 766 mmHg 80%
05:00 -3°C° 0 mm 1 m/s 766 mmHg 80%
06:00 -3°C° 0 mm 1 m/s 766 mmHg 81%
07:00 -3°C° 0 mm 1 m/s 766 mmHg 82%
08:00 -3°C° 0 mm 1 m/s 765 mmHg 82%
09:00 -3°C° 0 mm 1 m/s 765 mmHg 82%
10:00 -3°C° 0 mm 1 m/s 765 mmHg 82%
11:00 -2°C° 0 mm 1 m/s 764 mmHg 79%
12:00 -1°C° 0 mm 1 m/s 764 mmHg 77%
13:00 -1°C° 0 mm 1 m/s 764 mmHg 74%
14:00 -1°C° 0 mm 1 m/s 763 mmHg 76%
15:00 -2°C° 0 mm 1 m/s 763 mmHg 77%
16:00 -2°C° 0 mm 1 m/s 762 mmHg 78%
17:00 -4°C° 0 mm 2 m/s 762 mmHg 78%
18:00 -5°C° 0 mm 2 m/s 762 mmHg 78%
19:00 -5°C° 0 mm 2 m/s 761 mmHg 78%
20:00 -6°C° 0 mm 3 m/s 761 mmHg 78%
21:00 -6°C° 0 mm 3 m/s 761 mmHg 78%
22:00 -5°C° 0 mm 3 m/s 761 mmHg 78%
23:00 -5°C° 0 mm 3 m/s 760 mmHg 79%

Amanhã, 17 Janeiro, Domingo

Tempo Temperatura Precipitação Vento Pressão Humidade
00:00 -5°C° 0 mm 3 m/s 760 mmHg 81%
01:00 -5°C° 0 mm 3 m/s 760 mmHg 82%
02:00 -5°C° 0 mm 3 m/s 759 mmHg 83%
03:00 -5°C° 0 mm 4 m/s 759 mmHg 84%
04:00 -5°C° 0 mm 4 m/s 759 mmHg 85%
05:00 -4°C° 0 mm 4 m/s 759 mmHg 86%
06:00 -4°C° 0 mm 4 m/s 759 mmHg 87%
07:00 -4°C° 0 mm 4 m/s 759 mmHg 88%
08:00 -4°C° 0 mm 4 m/s 759 mmHg 89%
09:00 -4°C° 0 mm 4 m/s 759 mmHg 89%
10:00 -4°C° 0 mm 4 m/s 759 mmHg 90%
11:00 -3°C° 0 mm 4 m/s 759 mmHg 88%
12:00 -3°C° 0 mm 4 m/s 759 mmHg 86%
13:00 -2°C° 0 mm 4 m/s 759 mmHg 84%
14:00 -2°C° 0 mm 4 m/s 759 mmHg 87%
15:00 -3°C° 0 mm 4 m/s 759 mmHg 89%
16:00 -3°C° 0 mm 4 m/s 759 mmHg 92%
17:00 -3°C° 0 mm 4 m/s 759 mmHg 93%
18:00 -3°C° 0 mm 4 m/s 759 mmHg 94%
19:00 -3°C° 0 mm 4 m/s 760 mmHg 95%
20:00 -3°C° 0.1 mm 4 m/s 759 mmHg 95%
21:00 -3°C° 0.1 mm 4 m/s 759 mmHg 95%
22:00 -3°C° 0.1 mm 4 m/s 759 mmHg 95%
23:00 -3°C° 0 mm 4 m/s 759 mmHg 95%

Depois de amanhã, 18 Janeiro, Segunda-feira

Tempo Temperatura Precipitação Vento Pressão Humidade
00:00 -3°C° 0 mm 4 m/s 759 mmHg 95%
01:00 -2°C° 0 mm 4 m/s 759 mmHg 96%
02:00 -2°C° 0 mm 4 m/s 758 mmHg 96%
03:00 -2°C° 0 mm 4 m/s 758 mmHg 96%
04:00 -1°C° 0 mm 4 m/s 757 mmHg 96%
05:00 -1°C° 0 mm 4 m/s 757 mmHg 95%
06:00 -2°C° 0 mm 4 m/s 757 mmHg 94%
07:00 -2°C° 0 mm 4 m/s 757 mmHg 93%
08:00 -1°C° 0.2 mm 4 m/s 756 mmHg 94%
09:00 -1°C° 0.2 mm 5 m/s 756 mmHg 94%
10:00 0°C° 0.2 mm 5 m/s 755 mmHg 95%
11:00 0°C° 0.7 mm 5 m/s 755 mmHg 95%
12:00 +1°C° 0.7 mm 5 m/s 755 mmHg 96%
13:00 +1°C° 0.7 mm 5 m/s 754 mmHg 97%
14:00 +1°C° 0.1 mm 5 m/s 754 mmHg 95%
15:00 0°C° 0.1 mm 4 m/s 754 mmHg 94%
16:00 0°C° 0.1 mm 4 m/s 754 mmHg 92%
17:00 0°C° 0 mm 4 m/s 754 mmHg 91%
18:00 -1°C° 0 mm 4 m/s 754 mmHg 90%
19:00 -1°C° 0 mm 4 m/s 754 mmHg 89%
20:00 -1°C° 0 mm 4 m/s 754 mmHg 89%
21:00 -1°C° 0 mm 4 m/s 754 mmHg 90%
22:00 0°C° 0 mm 3 m/s 754 mmHg 90%
23:00 -1°C° 0 mm 4 m/s 754 mmHg 90%

19 Janeiro, Terça-feira

Tempo Temperatura Precipitação Vento Pressão Humidade
00:00 -1°C° 0 mm 4 m/s 754 mmHg 90%
01:00 -1°C° 0 mm 4 m/s 754 mmHg 89%
02:00 -1°C° 0 mm 4 m/s 753 mmHg 90%
03:00 -1°C° 0 mm 4 m/s 753 mmHg 91%
04:00 -1°C° 0 mm 4 m/s 752 mmHg 92%
05:00 -1°C° 0 mm 4 m/s 752 mmHg 93%
06:00 0°C° 0 mm 4 m/s 752 mmHg 94%
07:00 0°C° 0 mm 5 m/s 751 mmHg 94%
08:00 0°C° 0 mm 5 m/s 751 mmHg 95%
09:00 0°C° 0 mm 5 m/s 750 mmHg 95%
10:00 0°C° 0 mm 5 m/s 750 mmHg 96%
11:00 0°C° 0.3 mm 5 m/s 749 mmHg 96%
12:00 -1°C° 0.3 mm 6 m/s 748 mmHg 96%
13:00 -1°C° 0.3 mm 6 m/s 747 mmHg 97%
14:00 -1°C° 0.6 mm 6 m/s 746 mmHg 97%
15:00 -1°C° 0.6 mm 7 m/s 745 mmHg 97%
16:00 -1°C° 0.6 mm 7 m/s 744 mmHg 97%
17:00 -1°C° 0.4 mm 6 m/s 744 mmHg 97%
18:00 0°C° 0.4 mm 5 m/s 743 mmHg 97%
19:00 0°C° 0.4 mm 5 m/s 743 mmHg 97%
20:00 +1°C° 0.7 mm 5 m/s 742 mmHg 97%
21:00 +2°C° 0.7 mm 6 m/s 742 mmHg 97%
22:00 +3°C° 0.7 mm 6 m/s 742 mmHg 97%
23:00 +3°C° 0.7 mm 6 m/s 741 mmHg 96%

20 Janeiro, Quarta-feira

Tempo Temperatura Precipitação Vento Pressão Humidade
00:00 +4°C° 0.7 mm 7 m/s 741 mmHg 95%
01:00 +4°C° 0.7 mm 7 m/s 741 mmHg 94%
02:00 +4°C° 0.6 mm 7 m/s 741 mmHg 94%
03:00 +3°C° 0.6 mm 7 m/s 740 mmHg 94%
04:00 +3°C° 0.6 mm 7 m/s 740 mmHg 93%
05:00 +2°C° 0.7 mm 8 m/s 739 mmHg 93%
06:00 +2°C° 0.7 mm 8 m/s 739 mmHg 93%
07:00 +4°C° 0.7 mm 8 m/s 739 mmHg 93%
08:00 +4°C° 0.6 mm 8 m/s 738 mmHg 92%
09:00 +4°C° 0.6 mm 8 m/s 738 mmHg 92%
10:00 +4°C° 0.6 mm 8 m/s 738 mmHg 91%
11:00 +4°C° 0.7 mm 8 m/s 737 mmHg 91%
12:00 +5°C° 0.7 mm 9 m/s 737 mmHg 91%
13:00 +5°C° 0.7 mm 9 m/s 737 mmHg 91%
14:00 +5°C° 0.3 mm 9 m/s 737 mmHg 90%
15:00 +5°C° 0.3 mm 8 m/s 737 mmHg 90%
16:00 +6°C° 0.3 mm 8 m/s 737 mmHg 90%
17:00 +5°C° 0.1 mm 8 m/s 737 mmHg 90%
18:00 +5°C° 0.1 mm 8 m/s 737 mmHg 90%
19:00 +5°C° 0.1 mm 8 m/s 736 mmHg 89%
20:00 +5°C° 0.6 mm 8 m/s 736 mmHg 90%
21:00 +5°C° 0.6 mm 8 m/s 736 mmHg 90%
22:00 +5°C° 0.6 mm 8 m/s 736 mmHg 90%
23:00 +5°C° 0.4 mm 8 m/s 735 mmHg 90%

21 Janeiro, Quinta-feira

Tempo Temperatura Precipitação Vento Pressão Humidade
00:00 +5°C° 0.4 mm 7 m/s 735 mmHg 90%
01:00 +5°C° 0.4 mm 7 m/s 735 mmHg 90%
02:00 +5°C° 0.3 mm 6 m/s 735 mmHg 90%
03:00 +5°C° 0.3 mm 5 m/s 734 mmHg 91%
04:00 +5°C° 0.3 mm 5 m/s 734 mmHg 91%
05:00 +3°C° 0.1 mm 5 m/s 734 mmHg 89%
06:00 +4°C° 0.1 mm 4 m/s 733 mmHg 87%
07:00 +3°C° 0.1 mm 4 m/s 733 mmHg 85%
08:00 +2°C° 0.1 mm 5 m/s 733 mmHg 85%
09:00 +2°C° 0.1 mm 6 m/s 733 mmHg 84%
10:00 +2°C° 0.1 mm 6 m/s 734 mmHg 83%
11:00 +3°C° 0.1 mm 7 m/s 734 mmHg 80%
12:00 +2°C° 0.1 mm 8 m/s 734 mmHg 76%
13:00 +2°C° 0.1 mm 10 m/s 735 mmHg 73%
14:00 +2°C° 0.1 mm 9 m/s 735 mmHg 73%
15:00 +2°C° 0.1 mm 9 m/s 735 mmHg 72%
16:00 +2°C° 0.1 mm 9 m/s 735 mmHg 72%
17:00 +1°C° 0 mm 9 m/s 735 mmHg 71%
18:00 +1°C° 0 mm 10 m/s 735 mmHg 70%
19:00 +1°C° 0 mm 10 m/s 735 mmHg 69%
20:00 +1°C° 0 mm 11 m/s 735 mmHg 69%
21:00 +1°C° 0 mm 11 m/s 735 mmHg 69%
22:00 0°C° 0 mm 12 m/s 736 mmHg 70%
23:00 +2°C° 0 mm 11 m/s 736 mmHg 70%
Mostrar mais